Location: Escondida
(34.1015°N, 106.8964°W)
Time: 13:53:11
(UTC+00:00)

LilacSat-2 - Visible Passes

Search period start: 19 April 2026 00:00
Search period end: 29 April 2026 00:00
Orbit: 412 x 424 km, 97.5° (Epoch: 19 April)

Date Brightness Start Highest point End Pass type
(mag) Time Alt. Az. Time Alt. Az. Time Alt. Az.
19 Apr ? 02:14:19 10° SSE 02:17:24 46° ENE 02:20:29 10° N visible
20 Apr ? 03:02:03 10° SSW 03:04:49 26° W 03:07:35 10° NW visible
21 Apr ? 02:17:03 10° SSE 02:20:08 51° ENE 02:23:15 10° N visible
22 Apr ? 03:04:51 10° SSW 03:07:31 24° W 03:10:12 10° NW visible
23 Apr ? 02:19:39 10° SSE 02:22:47 56° ENE 02:25:55 10° N visible
24 Apr ? 03:07:31 10° SSW 03:10:06 23° W 03:12:42 10° NW visible
25 Apr ? 02:22:10 10° SSE 02:25:18 61° ENE 02:28:26 10° N visible
26 Apr ? 03:10:05 10° SSW 03:12:35 21° W 03:15:05 10° NW visible
27 Apr ? 02:24:34 10° SSE 02:27:42 67° ENE 02:30:52 10° N visible
28 Apr ? 03:12:31 10° SSW 03:14:56 20° W 03:17:21 10° NW visible
